Regional Weather Roundup
Issued by NWS

Home | Current Version | Previous Version | Text Only | Print | Product List | Glossary On
Versions: 1 2 3 4 5 6 7 8 9 10 11 12 13 14 15 16 17 18 19 20 21 22 23 24 25 26 27 28 29 30 31 32 33 34 35 36 37 38 39 40 41 42 43 44 45 46 47 48 49 50
000
ASUS45 KABQ 250410
RWRNM
NEW MEXICO REGIONAL WEATHER ROUNDUP
NATIONAL WEATHER SERVICE ALBUQUERQUE NM
1000 PM MDT SUN MAY 24 2015

NOTE: "FAIR" MEANS FEW OR NO CLOUDS BELOW 12,000 FEET AGL WITH NO
       SIGNIFICANT WEATHER OR OBSTRUCTIONS TO VISION.

      THIS PRODUCT IS RELEASED AS TWO VERSIONS.  ONE VERSION NEAR
      THE TOP OF THE HOUR CONTAINING PRELIMINARY DATA FROM ALBUQUERQUE
      AND OTHER STATIONS.  A FINAL VERSION WITH ADDITIONAL DATA IS
      ISSUED ABOUT 10 MINUTES AFTER THE HOUR.

NMZ501-503-504-510>518-250500-
NORTHWEST PLATEAU/NORTHCENTRAL MOUNTAINS

CITY           SKY/WX    TMP DP  RH WIND       PRES   REMARKS
FARMINGTON     CLEAR     51  43  74 W6        29.94R
LOS ALAMOS     MOCLDY    50  34  54 SW7       30.02R
SANTA FE       PTCLDY    50  36  58 SW5       29.98R
TAOS           PTCLDY    41  28  60 CALM      30.00R
ANGEL FIRE     FAIR      41  32  71 CALM      30.02R

$$
NMZ402-403-502-505>509-250500-
WESTCENTRAL MOUNTAINS/SOUTHWEST MOUNTAINS

CITY           SKY/WX    TMP DP  RH WIND       PRES   REMARKS
GALLUP         CLOUDY    48  40  73 SW9       30.05R
GRANTS         MOCLDY    49  38  66 W14G21    30.04R
SILVER CITY      N/A     63  27  25 W21       30.01R

$$
NMZ407-409-411-412-250500-
SOUTHERN DESERTS

CITY           SKY/WX    TMP DP  RH WIND       PRES   REMARKS
LORDSBURG      MOCLDY    64  28  25 W10G18    29.97R
DEMING         CLOUDY    68  28  22 W23G32    29.94R
LAS CRUCES     PTCLDY    65  23  20 W14       29.91R
HOLLOMAN AFB   PTCLDY    67  27  22 SW3       29.86R
ALAMOGORDO     PTCLDY    64  21  19 SE6       29.88R
T OR C         MOCLDY    66  32  28 NW16G23   29.92R

$$
NMZ519>523-250500-
CENTRAL VALLEYS/CENTRAL HIGHLANDS

CITY           SKY/WX    TMP DP  RH WIND       PRES   REMARKS
ALBUQUERQUE    CLOUDY    54  45  71 S12       30.00R
DOUBLE EAGLE   CLOUDY    54  39  58 SE8       30.00R
MORIARTY ARPT  LGT RAIN  52  37  56 W17       30.04R
CLINES CORNERS CLOUDY    48  36  63 NW24G31   30.01
BELEN          MOCLDY    58  41  53 NW10      29.97R
SOCORRO        CLOUDY    63  33  32 NW13      29.94R

$$
NMZ524>526-539-540-250500-
SOUTHCENTRAL MOUNTAINS

CITY           SKY/WX    TMP DP  RH WIND       PRES   REMARKS
RUIDOSO        CLEAR     55  18  22 SW20      30.02R

$$
NMZ527>531-250500-
NORTHEAST HIGHLANDS/NORTHEAST PLAINS

CITY           SKY/WX    TMP DP  RH WIND       PRES   REMARKS
LAS VEGAS      PTCLDY    48  35  60 S14       29.96R
RATON          MOCLDY    50  35  56 S7        29.90R
CLAYTON        CLEAR     52  42  69 CALM      29.85R

$$
NMZ532>537-250500-
EASTCENTRAL PLAINS

CITY           SKY/WX    TMP DP  RH WIND       PRES   REMARKS
TUCUMCARI      MOCLDY    57  47  69 W3        29.82R
CANNON AFB     MOCLDY    64  43  47 SE2       29.85R
CLOVIS AIRPORT MOCLDY    61  45  55 SE7       29.84F

$$
NMZ028-029-538-250500-
SOUTHEAST PLAINS

CITY           SKY/WX    TMP DP  RH WIND       PRES   REMARKS
ROSWELL        MOCLDY    66  31  27 SW14      29.82R
ARTESIA        MOCLDY    68  25  19 SW12      29.85R
CARLSBAD       PTCLDY    64  34  32 W12       29.82R
HOBBS          CLEAR     57  39  51 S7        29.88R


$$


USA.gov is the U.S. government's official web portal to all federal, state and local government web resources and services.